When you browse on this site, cookies collect data to enhance your experience and personalize the content and advertising you see.
Visit our Privacy Policy to learn more. By continuing to use the site, you agree to this use of cookies and data.

Hourly Weather Neuquén

Today, 29 September, Tuesday

Time Temperature Precipitation Wind Pressure Humidity
00:00 +15°C° 0 mm 4 mps 725 mmHg 24%
01:00 +14°C° 0 mm 5 mps 725 mmHg 26%
02:00 +14°C° 0 mm 5 mps 725 mmHg 30%
03:00 +13°C° 0 mm 5 mps 726 mmHg 35%
04:00 +12°C° 0 mm 5 mps 726 mmHg 39%
05:00 +13°C° 0 mm 6 mps 726 mmHg 38%
06:00 +14°C° 0 mm 7 mps 727 mmHg 38%
07:00 +13°C° 0 mm 9 mps 727 mmHg 37%
08:00 +16°C° 0 mm 9 mps 728 mmHg 31%
09:00 +18°C° 0 mm 10 mps 728 mmHg 25%
10:00 +21°C° 0 mm 11 mps 728 mmHg 19%
11:00 +22°C° 0 mm 11 mps 728 mmHg 17%
12:00 +23°C° 0 mm 11 mps 727 mmHg 14%
13:00 +24°C° 0 mm 10 mps 727 mmHg 12%
14:00 +24°C° 0 mm 11 mps 727 mmHg 12%
15:00 +24°C° 0 mm 11 mps 726 mmHg 12%
16:00 +24°C° 0 mm 11 mps 726 mmHg 11%
17:00 +22°C° 0 mm 9 mps 726 mmHg 13%
18:00 +20°C° 0 mm 7 mps 727 mmHg 14%
19:00 +19°C° 0 mm 5 mps 727 mmHg 16%
20:00 +17°C° 0 mm 6 mps 727 mmHg 17%
21:00 +17°C° 0 mm 7 mps 728 mmHg 17%
22:00 +16°C° 0 mm 8 mps 728 mmHg 18%
23:00 +16°C° 0 mm 9 mps 728 mmHg 23%

Tomorrow, 30 September, Wednesday

Time Temperature Precipitation Wind Pressure Humidity
00:00 +15°C° 0 mm 9 mps 728 mmHg 27%
01:00 +13°C° 0 mm 10 mps 728 mmHg 32%
02:00 +12°C° 0 mm 9 mps 728 mmHg 37%
03:00 +11°C° 0 mm 7 mps 729 mmHg 42%
04:00 +10°C° 0 mm 6 mps 729 mmHg 47%
05:00 +11°C° 0 mm 8 mps 729 mmHg 39%
06:00 +11°C° 0 mm 10 mps 729 mmHg 31%
07:00 +12°C° 0 mm 12 mps 730 mmHg 23%
08:00 +13°C° 0 mm 13 mps 730 mmHg 21%
09:00 +14°C° 0 mm 13 mps 729 mmHg 19%
10:00 +17°C° 0 mm 13 mps 729 mmHg 17%
11:00 +17°C° 0 mm 13 mps 729 mmHg 17%
12:00 +17°C° 0 mm 14 mps 729 mmHg 18%
13:00 +18°C° 0 mm 14 mps 728 mmHg 19%
14:00 +17°C° 0 mm 14 mps 728 mmHg 19%
15:00 +15°C° 0 mm 15 mps 729 mmHg 19%
16:00 +14°C° 0 mm 15 mps 729 mmHg 19%
17:00 +13°C° 0 mm 13 mps 729 mmHg 23%
18:00 +12°C° 0 mm 12 mps 730 mmHg 26%
19:00 +9°C° 0 mm 11 mps 730 mmHg 29%
20:00 +8°C° 0 mm 10 mps 731 mmHg 32%
21:00 +8°C° 0 mm 10 mps 731 mmHg 35%
22:00 +7°C° 0 mm 9 mps 731 mmHg 37%
23:00 +7°C° 0 mm 10 mps 732 mmHg 38%

Day after tomorrow, 1 October, Thursday

Time Temperature Precipitation Wind Pressure Humidity
00:00 +6°C° 0 mm 10 mps 732 mmHg 39%
01:00 +6°C° 0 mm 10 mps 732 mmHg 40%
02:00 +5°C° 0 mm 9 mps 732 mmHg 42%
03:00 +5°C° 0 mm 8 mps 733 mmHg 43%
04:00 +4°C° 0 mm 8 mps 733 mmHg 44%
05:00 +5°C° 0 mm 7 mps 734 mmHg 42%
06:00 +6°C° 0 mm 7 mps 734 mmHg 40%
07:00 +6°C° 0 mm 7 mps 735 mmHg 38%
08:00 +9°C° 0 mm 6 mps 735 mmHg 33%
09:00 +10°C° 0 mm 5 mps 735 mmHg 28%
10:00 +13°C° 0 mm 4 mps 735 mmHg 23%
11:00 +13°C° 0 mm 3 mps 735 mmHg 22%
12:00 +14°C° 0 mm 3 mps 735 mmHg 20%
13:00 +16°C° 0 mm 2 mps 734 mmHg 19%
14:00 +16°C° 0 mm 2 mps 734 mmHg 18%
15:00 +16°C° 0 mm 2 mps 734 mmHg 18%
16:00 +17°C° 0 mm 2 mps 734 mmHg 17%
17:00 +14°C° 0 mm 3 mps 734 mmHg 22%
18:00 +13°C° 0 mm 5 mps 735 mmHg 26%
19:00 +10°C° 0 mm 7 mps 735 mmHg 31%
20:00 +10°C° 0 mm 7 mps 736 mmHg 30%
21:00 +9°C° 0 mm 7 mps 737 mmHg 29%
22:00 +8°C° 0 mm 7 mps 737 mmHg 27%
23:00 +6°C° 0 mm 7 mps 738 mmHg 29%

2 October, Friday

Time Temperature Precipitation Wind Pressure Humidity
00:00 +5°C° 0 mm 8 mps 739 mmHg 31%
01:00 +4°C° 0 mm 8 mps 739 mmHg 33%
02:00 +2°C° 0 mm 8 mps 740 mmHg 34%
03:00 +2°C° 0 mm 9 mps 741 mmHg 36%
04:00 +1°C° 0 mm 9 mps 742 mmHg 38%
05:00 +2°C° 0 mm 9 mps 743 mmHg 38%
06:00 +2°C° 0 mm 9 mps 744 mmHg 39%
07:00 +2°C° 0 mm 9 mps 745 mmHg 40%
08:00 +3°C° 0 mm 9 mps 745 mmHg 38%
09:00 +6°C° 0 mm 8 mps 746 mmHg 36%
10:00 +7°C° 0 mm 8 mps 746 mmHg 34%
11:00 +9°C° 0 mm 7 mps 746 mmHg 33%
12:00 +9°C° 0 mm 6 mps 746 mmHg 32%
13:00 +10°C° 0 mm 6 mps 745 mmHg 31%
14:00 +10°C° 0 mm 6 mps 745 mmHg 31%
15:00 +10°C° 0 mm 6 mps 745 mmHg 30%
16:00 +11°C° 0 mm 6 mps 744 mmHg 30%
17:00 +10°C° 0 mm 6 mps 744 mmHg 31%
18:00 +9°C° 0 mm 5 mps 745 mmHg 32%
19:00 +8°C° 0 mm 5 mps 745 mmHg 33%
20:00 +7°C° 0 mm 6 mps 745 mmHg 33%
21:00 +7°C° 0 mm 6 mps 745 mmHg 34%
22:00 +6°C° 0 mm 7 mps 746 mmHg 34%
23:00 +5°C° 0 mm 6 mps 745 mmHg 35%

3 October, Saturday

Time Temperature Precipitation Wind Pressure Humidity
00:00 +5°C° 0 mm 6 mps 745 mmHg 37%
01:00 +5°C° 0 mm 6 mps 745 mmHg 39%
02:00 +4°C° 0 mm 6 mps 745 mmHg 42%
03:00 +4°C° 0 mm 6 mps 745 mmHg 45%
04:00 +4°C° 0 mm 6 mps 745 mmHg 48%
05:00 +4°C° 0 mm 7 mps 745 mmHg 49%
06:00 +5°C° 0 mm 7 mps 745 mmHg 50%
07:00 +5°C° 0 mm 8 mps 745 mmHg 52%
08:00 +7°C° 0 mm 8 mps 745 mmHg 47%
09:00 +10°C° 0 mm 8 mps 744 mmHg 43%
10:00 +12°C° 0 mm 8 mps 744 mmHg 39%
11:00 +12°C° 0 mm 9 mps 744 mmHg 39%
12:00 +12°C° 0 mm 9 mps 744 mmHg 39%
13:00 +13°C° 0 mm 9 mps 743 mmHg 39%
14:00 +12°C° 0 mm 9 mps 743 mmHg 41%
15:00 +11°C° 0 mm 9 mps 743 mmHg 44%
16:00 +11°C° 0 mm 8 mps 743 mmHg 46%
17:00 +10°C° 0 mm 7 mps 743 mmHg 52%
18:00 +8°C° 0 mm 6 mps 743 mmHg 58%
19:00 +7°C° 0 mm 5 mps 744 mmHg 64%
20:00 +7°C° 0 mm 5 mps 744 mmHg 67%
21:00 +6°C° 0 mm 4 mps 744 mmHg 70%
22:00 +6°C° 0 mm 4 mps 744 mmHg 74%
23:00 +6°C° 0 mm 5 mps 744 mmHg 73%

4 October, Sunday

Time Temperature Precipitation Wind Pressure Humidity
00:00 +7°C° 0 mm 5 mps 743 mmHg 73%
01:00 +7°C° 0 mm 5 mps 743 mmHg 72%
02:00 +7°C° 0 mm 5 mps 743 mmHg 73%
03:00 +7°C° 0 mm 6 mps 743 mmHg 75%
04:00 +5°C° 0 mm 6 mps 742 mmHg 76%
05:00 +7°C° 0 mm 6 mps 742 mmHg 70%
06:00 +8°C° 0 mm 6 mps 742 mmHg 65%
07:00 +8°C° 0 mm 6 mps 742 mmHg 59%
08:00 +10°C° 0 mm 7 mps 742 mmHg 52%
09:00 +12°C° 0 mm 7 mps 741 mmHg 46%
10:00 +14°C° 0 mm 7 mps 741 mmHg 39%
11:00 +15°C° 0 mm 8 mps 740 mmHg 37%
12:00 +17°C° 0 mm 8 mps 739 mmHg 34%
13:00 +18°C° 0 mm 8 mps 738 mmHg 31%
14:00 +18°C° 0 mm 8 mps 737 mmHg 32%
15:00 +18°C° 0 mm 8 mps 736 mmHg 34%
16:00 +18°C° 0 mm 8 mps 735 mmHg 35%
17:00 +16°C° 0 mm 7 mps 735 mmHg 38%
18:00 +15°C° 0 mm 6 mps 734 mmHg 42%
19:00 +14°C° 0 mm 5 mps 734 mmHg 46%
20:00 +14°C° 0 mm 5 mps 734 mmHg 47%
21:00 +13°C° 0 mm 6 mps 733 mmHg 47%
22:00 +12°C° 0 mm 7 mps 733 mmHg 48%
23:00 +12°C° 0 mm 7 mps 732 mmHg 49%
Show more